sat.trackr.live / text

‹ back to catalog

STARLINK-11582 [DTC]

NORAD 62985 · 2025-031E

PAYLOAD ACTIVE UNKNOWN

§ Identity

Operator
Country
US
Launch date
2025-02-11
Launch site
AFETR
Launch vehicle
Mass (kg)
RCS (m²)

Purposes: comms

External: N2YO · Heavens-Above · Gunter

§ Orbital elements

Epoch: 2026-09-21T00:39:10.210464Z

Period
91.67 min
Inclination
42.9977°
Eccentricity
0.0001519
Mean motion
15.70867228 rev/d
Perigee alt
355.4 km
Apogee alt
357.4 km
Semi-major
6,734.6 km
B*
8.8906e-4
RAAN
264.0546°
Arg perigee
270.4489°
Mean anomaly
89.6205°
Rev number
9,346

§ Raw data

STARLINK-11582 [DTC]1 62985U 25031E   26264.02720151  .00115358  00000+0  88906-3 0  99952 62985  42.9977 264.0546 0001519 270.4489  89.6205 15.70867228 93465

JSON: /api/v1/satellites/62985 · /tle

For live sub-satellite position, see the globe view (requires WebGL).

§ Visibility from observer

Set your observer location to see the next 7 days of passes ≥ 10°. The values pass through the URL so the page stays shareable.

No JS? Fill the form by hand. The geolocation button needs JavaScript.